This demonstration page uses our WeatherBlox Daily Observations layout. Learn more.

Left ArrowRight Arrow

Hourly Observations for November 21, 2019

Temp ( °F °C ) Dew Point ( °F °C ) Humidity (%) Winds ( mph kmh ) Pressure ( in mb ) Visibility ( mi km ) Precip ( " mm )
12:56 am 00:56 Cloudy 35 1.7 33 0.6 93 93 NNW 18 30 29.88 1012 10 16 0.00 0.00
1:41 am 01:41 Cloudy 36 2 32 0 87 87 NNW 17 28 29.97 1015 10 16 0.00 0.00
1:56 am 01:56 Cloudy 35 1.7 32 0 89 89 NNW 20 31 29.92 1013 10 16 0.00 0.00
2:56 am 02:56 Cloudy 35 1.7 31 -0.6 85 85 NNW 17 28 29.96 1015 10 16 0.00 0.00
3:56 am 03:56 Cloudy 35 1.7 31 -0.6 85 85 NNW 21 33 30.00 1016 10 16 0.00 0.00
4:10 am 04:10 Cloudy 36 2 30 -1 81 81 NNW 16 26 30.06 1018 10 16 0.00 0.00
4:24 am 04:24 Cloudy 36 2 30 -1 81 81 NNW 17 28 30.07 1018 10 16 0.00 0.00
4:56 am 04:56 Cloudy 34 1.1 30 -1.1 85 85 NNW 18 30 30.04 1017 10 16 0.00 0.00
5:56 am 05:56 Cloudy 34 1.1 29 -1.7 82 82 NNW 24 39 30.06 1018 10 16 0.00 0.00
6:24 am 06:24 Cloudy 34 1 28 -2 81 81 NNW 20 31 30.14 1021 10 16 0.00 0.00
6:56 am 06:56 Cloudy 33 0.6 29 -1.7 85 85 NNW 22 35 30.10 1019 10 16 0.00 0.00
7:56 am 07:56 Cloudy 32 0 29 -1.7 88 88 NNW 20 31 30.12 1020 10 16 0.00 0.00
8:56 am 08:56 Cloudy 32 0 28 -2.2 85 85 N 20 31 30.14 1021 10 16 0.00 0.00
9:56 am 09:56 Cloudy 32 0 27 -2.8 82 82 N 21 33 30.19 1023 10 16 0.00 0.00
10:21 am 10:21 Cloudy 32 0 27 -3 80 80 N 20 31 30.25 1024 10 16 0.00 0.00
10:56 am 10:56 Cloudy 32 0 26 -3.3 79 79 NNW 17 28 30.22 1023 10 16 0.00 0.00
11:56 am 11:56 Cloudy 32 0 26 -3.3 79 79 NNW 18 30 30.23 1024 10 16 0.00 0.00
12:46 pm 12:46 Cloudy 30 -1 27 -3 86 86 NNW 16 26 30.27 1025 10 16 0.00 0.00
12:56 pm 12:56 Cloudy 31 -0.6 26 -3.3 82 82 NNW 18 30 30.23 1024 10 16 0.00 0.00
1:15 pm 13:15 Cloudy 32 0 27 -3 80 80 N 18 30 30.27 1025 10 16 0.00 0.00
1:56 pm 13:56 Cloudy 32 0 26 -3.3 79 79 N 15 24 30.22 1023 10 16 0.00 0.00
2:56 pm 14:56 Cloudy 32 0 26 -3.3 79 79 N 16 26 30.22 1023 10 16 0.00 0.00
3:56 pm 15:56 Cloudy 32 0 26 -3.3 79 79 N 14 22 30.23 1024 10 16 0.00 0.00
4:56 pm 16:56 Partly Cloudy 30 -1.1 24 -4.4 79 79 N 10 17 30.24 1024 10 16 0.00 0.00
5:56 pm 17:56 Mostly Cloudy 29 -1.7 25 -3.9 85 85 N 10 17 30.24 1024 10 16 0.00 0.00
6:56 pm 18:56 Cloudy 29 -1.7 24 -4.4 82 82 N 8 13 30.25 1025 10 16 0.00 0.00
7:56 pm 19:56 Mostly Cloudy 29 -1.7 24 -4.4 82 82 N 13 20 30.28 1025 10 16 0.00 0.00
8:56 pm 20:56 Cloudy 29 -1.7 24 -4.4 82 82 N 10 17 30.30 1026 10 16 0.00 0.00
9:56 pm 21:56 Cloudy 28 -2.2 24 -4.4 85 85 NNE 8 13 30.31 1027 10 16 0.00 0.00
10:56 pm 22:56 Cloudy 28 -2.2 23 -5 81 81 N 12 19 30.31 1027 10 16 0.00 0.00
11:56 pm 23:56 Cloudy 28 -2.2 22 -5.6 78 78 N 8 13 30.32 1027 10 16 0.00 0.00

Powered by AerisWeather